[[{"header":{"parameterUnit":"m.s-1","parameterCategory":1,"la1":30.2991,"la2":30.254,"lo1":-89.0895,"lo2":-89.0444,"dy":0.0017,"dx":0.0017,"nx":28,"ny":28,"refTime":"2024-10-08T03:00:00:Z","depth":0,"parameterNumber":2,"parameterNumberName":"U-component_of_WINDS"},"data":[0,0,0,0,0,0,0,0,0,0,0,0,0,0,0,0,0,0,0,0,0,0,0,0,0,0,0,0,0,0,0,0,0,0,0,0,0,0,0,0,0,0,0,0,0,0,0,0,0,0,0,0,0,0,0,0,0,0,-0.8938,-0.8938,0,-0.8997,-0.8998,-0.8999,-0.8971,-0.897,-0.8968,-0.8967,-0.903,-0.9033,-0.9036,0,0,0,0,0,0,0,0,0,0,0,0,0,-0.8802,-0.8804,-0.8938,-0.8938,-0.8939,-0.8997,-0.8998,-0.8999,-0.8972,-0.897,-0.8968,-0.8966,-0.9029,-0.9033,-0.9037,0,0,0,0,0,0,0,0,0,0,0,0,0,-0.8861,-0.8805,-0.8937,-0.8933,-0.8933,-0.8997,-0.8998,-0.8999,-0.8972,-0.897,-0.8968,-0.8966,-0.9028,-0.9033,-0.9037,-0.911,0,0,-0.9051,-0.9053,0,0,0,0,0,0,0,0,-0.8858,-0.8866,-0.8933,-0.8933,-0.8933,-0.8975,-0.8973,-0.9036,-0.8973,-0.8957,-0.8967,-0.8964,-0.9014,-0.9019,-0.9035,-0.9113,-0.9116,-0.9052,-0.9054,-0.9056,-0.9058,0,0,0,0,0,0,0,-0.8854,-0.8863,-0.8961,-0.8934,-0.8934,-0.8928,-0.8934,-0.8985,-0.8997,-0.8958,-0.8957,-0.8964,-0.9013,-0.9031,-0.9037,-0.9117,-0.9051,-0.9056,-0.9058,-0.906,-0.9258,-0.926,0,0,0,0,0,0,-0.8849,-0.886,-0.8959,-0.8963,-0.8889,-0.8932,-0.8939,-0.8964,-0.8997,-0.9,-0.8966,-0.8962,-0.9024,-0.9031,-0.9039,-0.9128,-0.9056,-0.9061,-0.9063,-0.9255,-0.9258,-0.9261,0,0,0,0,0,0,-0.8847,-0.8859,-0.8957,-0.8911,-0.8923,-0.8937,-0.8965,-0.8966,-0.8984,-0.9002,-0.9004,-0.8981,-0.9023,-0.9032,-0.9093,-0.9129,-0.9063,-0.9067,-0.9253,-0.9256,-0.926,-0.9305,0,0,0,0,0,0,-0.8843,-0.8858,-0.8886,-0.8912,-0.8926,-0.901,-0.8967,-0.8969,-0.8991,-0.8988,-0.9018,-0.902,-0.9022,-0.9086,-0.9097,-0.9135,-0.9071,-0.9249,-0.9254,-0.9259,-0.9301,-0.931,-0.9318,0,0,0,0,0,-0.8838,-0.8896,-0.8887,-0.8899,-0.8961,-0.9012,-0.902,-0.902,-0.8994,-0.9023,-0.9034,-0.9019,-0.9123,-0.9092,-0.9105,-0.9144,-0.9247,-0.9253,-0.9258,-0.9297,-0.9308,-0.9318,0,0,0,0,0,0,-0.8875,-0.89,-0.889,-0.8958,-0.8983,-0.9007,-0.9043,-0.9032,-0.9065,-0.906,-0.9059,-0.9066,-0.9128,-0.9142,-0.9107,-0.9217,-0.9181,-0.919,-0.9206,-0.9217,-0.9226,-0.9222,-0.9074,0,0,0,0,0,-0.8891,-0.893,-0.8949,-0.9008,-0.9021,-0.903,-0.9052,-0.9049,-0.9075,-0.9086,-0.9102,-0.9128,-0.9167,-0.9192,-0.9229,-0.9301,-0.9308,-0.9334,-0.9343,-0.935,-0.9358,-0.9398,-0.9411,-0.928,-0.9279,-0.9279,0,0,-0.8925,-0.8943,-0.8968,-0.9016,-0.9035,-0.9076,-0.9039,-0.9084,-0.9114,-0.9093,-0.9151,-0.9164,-0.9193,-0.926,-0.929,-0.9273,-0.9395,-0.9357,-0.9363,-0.9367,-0.9405,-0.9418,-0.9429,-0.9283,-0.9283,-0.9282,0,0,-0.9007,-0.9025,-0.9076,-0.9095,-0.9123,-0.9129,-0.9141,-0.9166,-0.9174,-0.9232,-0.9217,-0.9253,-0.9319,-0.934,-0.936,-0.9449,-0.9437,-0.9461,-0.9508,-0.9547,-0.9557,-0.9566,-0.96,-0.9611,-0.9468,-0.9468,-0.9469,0,-0.9046,-0.9107,-0.9103,-0.9149,-0.9171,-0.9152,-0.9204,-0.9223,-0.9263,-0.9278,-0.9258,-0.934,-0.9359,-0.9431,-0.9452,-0.9468,-0.9483,-0.9459,-0.9556,-0.9565,-0.9574,-0.9605,-0.9618,-0.9471,-0.9471,-0.9471,-0.947,0,-0.9154,-0.9196,-0.9233,-0.9271,-0.9297,-0.9346,-0.935,-0.9376,-0.9371,-0.9379,-0.9438,-0.9458,-0.9499,-0.9515,-0.9511,-0.9587,-0.9575,-0.9555,-0.952,-0.9589,-0.9619,-0.9631,-0.9475,-0.9474,-0.9474,-0.9473,0,0,-0.9264,-0.9298,-0.9312,-0.9329,-0.9358,-0.9391,-0.9438,-0.9477,-0.95,-0.9527,-0.9568,-0.9624,-0.9605,-0.9627,-0.9625,-0.9659,-0.973,-0.9635,-0.9636,-0.9653,-0.9816,-0.9832,-0.9846,-0.972,-0.9723,-0.9724,-0.9814,0,-0.935,-0.9433,-0.9431,-0.9509,-0.9548,-0.953,-0.9571,-0.9594,-0.9602,-0.9637,-0.9645,-0.9685,-0.9657,-0.967,-0.9703,-0.9714,-0.9763,-0.9707,-0.976,-0.9762,-0.9755,-0.9861,-0.9879,-0.9962,-0.9825,-0.9827,-0.9828,0,-0.9463,-0.9493,-0.9575,-0.9598,-0.9614,-0.9652,-0.9687,-0.972,-0.9745,-0.9748,-0.9772,-0.9764,-0.9813,-0.9774,-0.9842,-0.9804,-0.9825,-0.9833,-0.9837,-0.9844,-0.9801,-0.9873,-0.9989,-1.0002,-0.9846,-0.9845,-0.9844,0,-0.9537,-0.9598,-0.9655,-0.9669,-0.9698,-0.9724,-0.9737,-0.976,-0.9784,-0.9814,-0.9829,-0.9865,-0.9885,-0.9913,-0.9915,-0.9886,-0.9983,-0.9945,-0.9989,-0.9989,-1.0012,-1.0011,-1.0135,-1.0022,-1.0022,-1.0021,-1.0021,0,-0.9635,-0.9686,-0.9688,-0.9724,-0.978,-0.9776,-0.9833,-0.9843,-0.9863,-0.9901,-0.9886,-0.9922,-0.9921,-0.9957,-0.9958,-1.0014,-1.0023,-1.0028,-1.0028,-1.0031,-1.003,-1.0046,-1.0041,-1.0025,-1.0024,-1.0023,-1.0023,0,-0.9729,-0.9732,-0.9793,-0.9814,-0.982,-0.9861,-0.988,-0.9913,-0.9919,-0.9966,-0.9977,-0.9986,-1.0028,-1.0031,-1.008,-1.008,-1.0149,-1.0142,-1.0141,-1.014,-1.0185,-1.0181,-1.0325,-1.0344,-1.0217,-1.0218,-1.0219,0,-0.9792,-0.9831,-0.9856,-0.9879,-0.9894,-0.9932,-0.9955,-0.9952,-0.9977,-1.0008,-1.0038,-1.0078,-1.011,-1.0177,-1.0189,-1.0225,-1.022,-1.0268,-1.0226,-1.0227,-1.0223,-1.0222,-1.0226,-1.0277,-1.0278,-1.0279,-1.028,0,-0.9905,-0.9904,-0.9938,-0.9973,-1.0001,-1.0028,-1.0053,-1.0073,-1.0073,-1.0102,-1.0144,-1.0169,-1.0217,-1.0257,-1.0293,-1.0307,-1.0295,-1.0293,-1.0305,-1.031,-1.0308,-1.0311,-1.0165,-1.029,-1.0289,-1.0289,-1.0288,-1.0288,-0.9987,-1.0021,-1.0043,-1.0082,-1.01,-1.0124,-1.0156,-1.0165,-1.02,-1.0239,-1.0235,-1.0281,-1.0305,-1.0351,-1.0368,-1.0404,-1.0388,-1.0406,-1.0411,-1.0416,-1.0421,-1.03,-1.0411,-1.041,-1.041,-1.041,-1.041,0,-1.0101,-1.0114,-1.0149,-1.0184,-1.0214,-1.0197,-1.0224,-1.0251,-1.0292,-1.0314,-1.0346,-1.0394,-1.0432,-1.0446,-1.0483,-1.051,-1.0505,-1.052,-1.0519,-1.0523,-1.0433,-1.0419,-1.0523,-1.0523,-1.0523,-1.0523,-1.0523,-1.0523,-1.0164,-1.022,-1.0222,-1.0287,-1.03,-1.0345,-1.0362,-1.0384,-1.0402,-1.0456,-1.0487,-1.0495,-1.0514,-1.0553,-1.0587,-1.059,-1.0606,-1.0624,-1.0624,-1.054,-1.0529,-1.0518,-1.0506,-1.0626,-1.0627,-1.0712,-1.0713,-1.0713]},{"header":{"parameterUnit":"m.s-1","parameterCategory":1,"la1":30.2991,"la2":30.254,"lo1":-89.0895,"lo2":-89.0444,"dy":0.0017,"dx":0.0017,"nx":28,"ny":28,"refTime":"2024-10-08T03:00:00:Z","depth":0,"parameterNumber":3,"parameterNumberName":"V-component_of_WINDS"},"data":[0,0,0,0,0,0,0,0,0,0,0,0,0,0,0,0,0,0,0,0,0,0,0,0,0,0,0,0,0,0,0,0,0,0,0,0,0,0,0,0,0,0,0,0,0,0,0,0,0,0,0,0,0,0,0,0,0,0,-6.0755,-6.0756,0,-6.0831,-6.0832,-6.0833,-6.0737,-6.0733,-6.073,-6.0727,-6.0799,-6.0804,-6.0809,0,0,0,0,0,0,0,0,0,0,0,0,0,-6.0523,-6.0527,-6.0755,-6.0756,-6.0757,-6.0831,-6.0832,-6.0833,-6.0737,-6.0733,-6.0729,-6.0725,-6.0797,-6.0803,-6.0809,0,0,0,0,0,0,0,0,0,0,0,0,0,-6.0613,-6.0529,-6.0755,-6.0719,-6.0716,-6.0831,-6.0832,-6.0833,-6.0738,-6.0733,-6.0728,-6.0723,-6.0795,-6.0803,-6.081,-6.0962,0,0,-6.0834,-6.0837,0,0,0,0,0,0,0,0,-6.0608,-6.0622,-6.0723,-6.0721,-6.0719,-6.0769,-6.0776,-6.0876,-6.074,-6.073,-6.0727,-6.072,-6.0793,-6.08,-6.0826,-6.0966,-6.0969,-6.0835,-6.0839,-6.0843,-6.0845,0,0,0,0,0,0,0,-6.0602,-6.0618,-6.0785,-6.0724,-6.0722,-6.0696,-6.0704,-6.0795,-6.0789,-6.073,-6.0723,-6.0734,-6.0791,-6.0819,-6.0827,-6.097,-6.0834,-6.0841,-6.0846,-6.0849,-6.1238,-6.1243,0,0,0,0,0,0,-6.0601,-6.0614,-6.0782,-6.0787,-6.065,-6.0705,-6.0713,-6.0758,-6.0788,-6.0788,-6.0738,-6.0729,-6.0808,-6.0818,-6.0829,-6.1009,-6.0842,-6.085,-6.0854,-6.1232,-6.1239,-6.1245,0,0,0,0,0,0,-6.0596,-6.0617,-6.0779,-6.0699,-6.0717,-6.0715,-6.0766,-6.0762,-6.079,-6.0795,-6.0792,-6.0769,-6.0804,-6.0818,-6.093,-6.101,-6.0853,-6.086,-6.1226,-6.1234,-6.1242,-6.1371,0,0,0,0,0,0,-6.059,-6.0616,-6.0675,-6.0701,-6.0722,-6.0882,-6.0771,-6.0768,-6.0805,-6.0794,-6.0822,-6.0822,-6.0801,-6.0919,-6.0938,-6.1018,-6.0866,-6.1218,-6.123,-6.124,-6.136,-6.1383,-6.1403,0,0,0,0,0,-6.0582,-6.0707,-6.0679,-6.0699,-6.0796,-6.0886,-6.0898,-6.0874,-6.0812,-6.087,-6.0873,-6.0821,-6.0999,-6.0932,-6.0952,-6.1036,-6.1213,-6.1226,-6.1239,-6.135,-6.1379,-6.1403,0,0,0,0,0,0,-6.0689,-6.071,-6.0678,-6.0816,-6.085,-6.087,-6.0943,-6.0905,-6.0956,-6.0943,-6.0908,-6.0916,-6.1036,-6.1046,-6.0971,-6.1184,-6.1095,-6.1113,-6.1173,-6.12,-6.1221,-6.1216,-6.0873,0,0,0,0,0,-6.0729,-6.0802,-6.0815,-6.0935,-6.0954,-6.0946,-6.0984,-6.0963,-6.0996,-6.101,-6.102,-6.1053,-6.1116,-6.1159,-6.1217,-6.1361,-6.1365,-6.1428,-6.145,-6.1468,-6.1483,-6.156,-6.1588,-6.1287,-6.1287,-6.1287,0,0,-6.0811,-6.0832,-6.088,-6.0957,-6.0981,-6.1056,-6.0959,-6.1042,-6.1097,-6.1022,-6.1129,-6.1138,-6.1172,-6.1301,-6.1358,-6.1314,-6.1567,-6.1484,-6.1498,-6.1504,-6.1576,-6.1604,-6.1629,-6.1296,-6.1295,-6.1293,0,0,-6.1,-6.1023,-6.1126,-6.1152,-6.1191,-6.1185,-6.121,-6.1236,-6.1239,-6.1347,-6.1292,-6.1355,-6.1465,-6.1492,-6.152,-6.1719,-6.1673,-6.1739,-6.1852,-6.1927,-6.1951,-6.1971,-6.2042,-6.2068,-6.1754,-6.1755,-6.1755,0,-6.1097,-6.121,-6.1183,-6.1271,-6.1306,-6.1243,-6.1346,-6.1372,-6.1427,-6.1452,-6.1402,-6.1539,-6.1557,-6.1692,-6.1741,-6.1765,-6.1791,-6.1736,-6.195,-6.197,-6.1989,-6.2056,-6.2083,-6.1762,-6.1761,-6.1761,-6.176,0,-6.1327,-6.1406,-6.1484,-6.1541,-6.1585,-6.168,-6.1666,-6.1713,-6.1688,-6.1686,-6.1796,-6.1816,-6.1878,-6.1907,-6.1882,-6.2038,-6.201,-6.1956,-6.1865,-6.2026,-6.2089,-6.2114,-6.1773,-6.1771,-6.1768,-6.1766,0,0,-6.1585,-6.1627,-6.1656,-6.1681,-6.1719,-6.1779,-6.187,-6.1932,-6.1973,-6.2013,-6.2088,-6.2183,-6.2133,-6.2165,-6.2142,-6.2208,-6.2364,-6.2145,-6.2145,-6.2185,-6.2537,-6.2578,-6.2608,-6.2334,-6.2339,-6.2343,-6.2534,0,-6.1774,-6.1935,-6.1914,-6.2067,-6.2139,-6.208,-6.216,-6.2191,-6.2192,-6.2252,-6.2251,-6.2319,-6.2249,-6.2267,-6.233,-6.2332,-6.2435,-6.2318,-6.2402,-6.2406,-6.2396,-6.2641,-6.2684,-6.2864,-6.2558,-6.2562,-6.2565,0,-6.2016,-6.2068,-6.2229,-6.2256,-6.2286,-6.2358,-6.2413,-6.2471,-6.2505,-6.2501,-6.2537,-6.2503,-6.2592,-6.2501,-6.2623,-6.2545,-6.2578,-6.2584,-6.259,-6.2597,-6.2496,-6.2654,-6.2921,-6.2948,-6.2604,-6.2601,-6.2598,0,-6.2189,-6.2297,-6.2408,-6.2431,-6.2466,-6.2518,-6.2534,-6.2563,-6.2602,-6.2649,-6.2673,-6.273,-6.2761,-6.2805,-6.2786,-6.2721,-6.2912,-6.2819,-6.291,-6.2911,-6.2953,-6.295,-6.3228,-6.2974,-6.2974,-6.2973,-6.2973,0,-6.2402,-6.2503,-6.2486,-6.2555,-6.2666,-6.2639,-6.2749,-6.2758,-6.2784,-6.2851,-6.2803,-6.2867,-6.2838,-6.2899,-6.2884,-6.2988,-6.3002,-6.3,-6.2995,-6.3005,-6.3005,-6.3026,-6.3013,-6.2981,-6.2979,-6.2978,-6.2976,0,-6.2613,-6.2606,-6.2723,-6.2747,-6.2755,-6.2836,-6.2855,-6.2918,-6.2916,-6.3002,-6.302,-6.3016,-6.3086,-6.3071,-6.3147,-6.3137,-6.3267,-6.3247,-6.3257,-6.3252,-6.3344,-6.3336,-6.3645,-6.3684,-6.3405,-6.3408,-6.341,0,-6.275,-6.2827,-6.286,-6.2903,-6.2924,-6.2993,-6.3033,-6.3009,-6.3052,-6.3096,-6.3154,-6.322,-6.3271,-6.3385,-6.3388,-6.3446,-6.3426,-6.353,-6.3434,-6.3442,-6.3427,-6.3423,-6.3431,-6.3549,-6.3553,-6.3555,-6.3557,0,-6.2994,-6.2987,-6.3047,-6.3107,-6.3157,-6.3202,-6.3242,-6.3279,-6.3259,-6.3309,-6.3381,-6.3422,-6.35,-6.3566,-6.362,-6.3634,-6.3593,-6.3588,-6.3612,-6.3622,-6.3626,-6.3625,-6.3309,-6.3581,-6.3578,-6.3577,-6.3575,-6.3574,-6.3172,-6.3238,-6.3272,-6.334,-6.3369,-6.3408,-6.3468,-6.3474,-6.3535,-6.3598,-6.358,-6.3662,-6.3692,-6.3761,-6.3781,-6.3844,-6.3804,-6.3839,-6.3848,-6.3857,-6.3869,-6.3616,-6.3853,-6.3853,-6.3852,-6.3851,-6.3851,0,-6.3414,-6.3433,-6.3496,-6.3555,-6.3609,-6.3567,-6.361,-6.3657,-6.373,-6.3763,-6.3816,-6.3898,-6.3962,-6.397,-6.4029,-6.4078,-6.406,-6.4094,-6.409,-6.4094,-6.39,-6.3874,-6.4108,-6.4108,-6.4108,-6.4108,-6.4108,-6.4108,-6.3546,-6.3655,-6.3652,-6.3774,-6.3791,-6.3873,-6.39,-6.3935,-6.3962,-6.4057,-6.4111,-6.4116,-6.4138,-6.4199,-6.4255,-6.4256,-6.428,-6.4322,-6.4315,-6.4134,-6.4108,-6.4084,-6.4058,-6.4327,-6.4328,-6.4503,-6.4505,-6.4506]}]]